• Join FlightAware (Why Join?)
  • Login
  • US Flag 
12:53PM EST


 

Airport Tracker/Info


-or-


 

Live Flight TrackerFlight Track Log ✈ EJA122 ✈ 06-Nov-2013 ✈ KDAL - KPWA

Flight Track Log - Related Links

Times and Time Zones

All times are in EST time to prevent confusion due to time zone crossing. See the EJA122 flight status page for this flight to view local times or setup timezone preferences in your user account.

Time Position Orientation Groundspeed Altitude Reporting Facility
EST Latitude Longitude Course Direction KTS MPH feet Rate Location/Type
04:04PM 32.8667 -96.8667 320° Northwest 178 205 1,400  Level Dallas / Fort Worth TRACON
04:05PM 32.9000 -96.9000 320° Northwest 185 213 3,900 3,138 Climbing Dallas / Fort Worth TRACON
04:06PM 32.9333 -96.9500 308° West 236 272 7,100 2,851 Climbing Dallas / Fort Worth TRACON
04:08PM 33.0894 -97.0317 336° Northwest 263 303 13,500 2,465 Climbing Fort Worth Center
04:09PM 33.1647 -97.0511 348° North 293 337 15,400 1,750 Climbing Fort Worth Center
04:10PM 33.2672 -97.0706 351° North 327 376 17,000 1,400 Climbing Fort Worth Center
04:11PM 33.3611 -97.0900 350° North 365 420 18,200 1,500 Climbing Fort Worth Center
04:12PM 33.4739 -97.1072 353° North 371 427 20,000 1,400 Climbing Fort Worth Center
04:13PM 33.5783 -97.1192 355° North 376 433 21,000 500 Climbing Fort Worth Center
04:14PM 33.6994 -97.1339 354° North 406 467 21,000  Level Fort Worth Center
04:15PM 33.8203 -97.1511 353° North 432 497 21,000  Level Fort Worth Center
04:16PM 33.9478 -97.1656 355° North 444 511 21,000  Level Fort Worth Center
04:17PM 34.0772 -97.1828 354° North 457 526 21,000  Level Fort Worth Center
04:18PM 34.1939 -97.1975 354° North 462 532 21,000  Level Fort Worth Center
04:19PM 34.3233 -97.2147 354° North 468 539 21,000  Level Fort Worth Center
04:20PM 34.4486 -97.2322 353° North 461 531 21,000 -200 Level Fort Worth Center
04:21PM 34.5717 -97.2472 354° North 449 517 20,600 -1,200 Descending Fort Worth Center
04:22PM 34.6906 -97.2619 354° North 442 509 18,600 -2,171 Descending Fort Worth Center
04:23PM 34.7889 -97.2719 355° North 406 467 16,800 -2,100 Descending Fort Worth Center
04:23PM 34.8056 -97.2769 346° North 427 491 16,500 -2,571 Descending Fort Worth Center
04:24PM 34.8786 -97.2894 352° North 377 434 14,700 -2,600 Descending Fort Worth Center
04:24PM 34.9078 -97.3047 337° Northwest 396 456 13,900 -2,836 Descending Fort Worth Center
04:25PM 34.9494 -97.3375 327° Northwest 335 386 12,100 -2,700 Descending Fort Worth Center
04:25PM 34.9850 -97.3628 330° Northwest 355 409 11,200 -2,200 Descending Fort Worth Center
04:26PM 35.0225 -97.3958 324° Northwest 272 313 9,900 -2,000 Descending Fort Worth Center
04:26PM 35.0453 -97.4161 324° Northwest 309 356 9,200 -1,964 Descending Fort Worth Center
04:27PM 35.0706 -97.4389 324° Northwest 246 283 8,100 -2,100 Descending Fort Worth Center
04:27PM 35.1017 -97.4642 326° Northwest 273 314 7,100 -1,082 Descending Fort Worth Center
04:28PM 35.1308 -97.4897 324° Northwest 241 277 7,000 -100 Descending Fort Worth Center
04:28PM 35.1558 -97.5125 323° Northwest 249 287 7,000  Level Fort Worth Center
04:29PM 35.1872 -97.5431 321° Northwest 239 275 7,000 -100 Level Fort Worth Center
04:29PM 35.2100 -97.5583 331° Northwest 244 281 6,900 -295 Descending Fort Worth Center
04:30PM 35.2392 -97.5864 322° Northwest 211 243 6,700 -600 Descending Fort Worth Center
04:30PM 35.2600 -97.6017 329° Northwest 231 266 6,300 -806 Descending Fort Worth Center
04:31PM 35.2933 -97.6347 321° Northwest 207 238 5,800 -600 Descending Fort Worth Center
04:31PM 35.3058 -97.6375 350° North 218 251 5,700 -764 Descending Fort Worth Center
04:32PM 35.3372 -97.6478 345° North 179 206 5,100 -1,000 Descending Fort Worth Center
04:32PM 35.3558 -97.6478 360° North 194 223 4,700 -1,000 Descending Fort Worth Center
04:33PM 35.3933 -97.6528 354° North 162 186 4,000 -900 Descending Fort Worth Center
04:33PM 35.4039 -97.6478 21° North 183 211 3,800 -984 Descending Fort Worth Center
04:34PM 35.4414 -97.6481 360° North 167 192 3,000 -1,000 Descending Fort Worth Center
04:34PM 35.4497 -97.6481 360° North 177 204 2,800 -787 Descending Fort Worth Center
04:35PM 35.4831 -97.6506 357° North 144 166 2,200 -800 Descending Fort Worth Center
04:35PM 35.4872 -97.6481 26° Northeast 157 181 2,000 -689 Descending Fort Worth Center
04:36PM 35.5164 -97.6483 360° North 114 131 1,500 -700 Descending Fort Worth Center
04:36PM 35.5206 -97.6483 360° North 133 153 1,300 15,395 Descending Fort Worth Center
04:37PM 35.5644 -97.6483 360° North 133 153 21,000 19,700 Climbing Fort Worth Center